Simultaneous Nadir Overpasses (SNOs) Predictions

Prediction of SNOs between AQUA and NPP Satellite Orbit:

Table of predicted SNOs for the next 14.0 days since TLE Epoch: 2/11/2012
Index Date (AQUA) Time (AQUA) Lat,Lon (AQUA) SZA (AQUA ) Date (NPP) Time (NPP) Lat,Lon (NPP) SZA (NPP ) Distance(km) Time Diff (sec)
1 02/12/2012 14:07:38 68.21,-167.01 119.53 02/12/2012 14:06:25 68.35,-167.96 119.77 41.95 73
2 02/12/2012 14:54:18 -77.00, 18.76 69.79 02/12/2012 14:54:18 -77.00, 18.81 69.80 1.28 0
3 02/12/2012 15:41:08 81.79,-126.50 101.45 02/12/2012 15:42:21 81.34,-126.15 101.22 50.69 73
4 02/15/2012 06:21:36 76.33, -35.33 110.12 02/15/2012 06:20:43 76.33, -35.31 110.16 0.50 53
5 02/15/2012 07:10:42 -77.34, 135.95 71.09 02/15/2012 07:11:06 -77.35, 136.04 71.13 2.44 24
6 02/17/2012 22:37:57 76.81, 82.18 108.65 02/17/2012 22:37:28 76.82, 82.27 108.65 2.56 29
7 02/17/2012 23:27:12 -77.39,-107.99 72.07 02/17/2012 23:28:01 -77.39,-108.04 72.09 1.32 49
8 02/20/2012 14:10:54 -57.41, 4.10 52.86 02/20/2012 14:09:42 -57.63, 2.54 52.36 96.62 72
9 02/20/2012 14:54:24 76.93,-161.50 107.56 02/20/2012 14:54:20 76.93,-161.51 107.57 0.20 4
10 02/20/2012 15:43:32 -77.82, 9.73 73.55 02/20/2012 15:44:45 -77.83, 9.81 73.63 2.02 73
11 02/23/2012 06:21:43 -76.25, 144.40 72.60 02/23/2012 06:20:47 -76.25, 144.35 72.54 1.27 56




NCC Satellite Simultaneous Nadir Overpasses (SNOs) Prediction Service
